GW0605 Weather Reports


time (UTC)temp
C
wind
direction
speed
KPH
gust
KPH
rain 1hr
cm
rain 24hr
cm
rain mn
cm
humidity
%
barometer
mb
20260506104017 13 15 11.3 25.7 0.00 0.00 0.00 66 1009.9
20260506103103 13 26 8.0 22.5 0.00 0.00 0.00 66 1009.7
20260506103016 13 7 8.0 22.5 0.00 0.00 0.00 67 1009.9
20260506101613 12 360 8.0 25.7 0.00 0.00 0.00 66 1009.7
20260506101517 13 18 11.3 24.1 0.00 0.00 0.00 67 1009.9
20260506101041 13 19 9.7 25.7 0.00 0.00 0.00 67 1009.9
20260506100051 12 18 6.4 19.3 0.00 0.00 0.00 69 1009.7
20260506100017 12 6 8.0 19.3 0.00 0.00 0.00 71 1009.8
20260506095016 12 16 9.7 25.7 0.00 0.00 0.00 72 1009.8
20260506094600 12 31 3.2 17.7 0.00 0.00 0.00 72 1009.7
20260506094017 12 20 4.8 22.5 0.00 0.00 0.00 72 1009.8
20260506093102 12 360 9.7 22.5 0.00 0.00 0.00 71 1009.8
20260506093015 12 18 9.7 22.5 0.00 0.00 0.00 72 1009.8
20260506092017 12 14 9.7 25.7 0.00 0.00 0.00 71 1009.8
20260506091551 12 12 8.0 17.7 0.00 0.00 0.00 71 1009.7
20260506091017 12 17 9.7 22.5 0.00 0.00 0.00 72 1009.6
20260506090109 12 11 8.0 24.1 0.00 0.00 0.00 71 1009.6
20260506090017 12 20 8.0 24.1 0.00 0.00 0.00 71 1009.6
20260506085016 12 10 12.9 27.4 0.00 0.00 0.00 70 1009.6
20260506084603 12 25 11.3 27.4 0.00 0.00 0.00 70 1009.5
20260506084016 12 12 8.0 17.7 0.00 0.00 0.00 73 1009.5
20260506083052 12 33 6.4 25.7 0.00 0.00 0.00 73 1009.5
20260506083016 12 20 6.4 25.7 0.00 0.00 0.00 74 1009.5
20260506082016 12 1 8.0 19.3 0.00 0.00 0.00 74 1009.5
20260506081605 12 344 8.0 19.3 0.00 0.00 0.00 74 1009.5
20260506081016 12 19 6.4 14.5 0.00 0.00 0.00 75 1009.5
20260506073054 12 28 4.8 16.1 0.00 0.00 0.00 77 1009.3
20260506073016 12 25 4.8 16.1 0.00 0.00 0.00 78 1009.3
20260506072036 11 13 6.4 14.5 0.00 0.00 0.00 79 1009.3
20260506071552 11 27 4.8 17.7 0.00 0.00 0.00 78 1009.3
20260506071015 11 23 8.0 17.7 0.00 0.00 0.00 78 1009.3
20260506062036 11 6 6.4 17.7 0.00 0.00 0.00 81 1009.1
20260506061552 11 24 1.6 22.5 0.00 0.00 0.00 81 1009.0
20260506061016 11 19 8.0 22.5 0.00 0.00 0.00 81 1009.0
20260506051036 10 16 6.4 17.7 0.00 0.00 0.00 82 1008.9
20260506050114 10 5 6.4 14.5 0.00 0.00 0.00 81 1009.0
20260506045036 10 1 4.8 14.5 0.00 0.00 0.00 81 1009.1
20260506044552 10 5 3.2 14.5 0.00 0.00 0.00 81 1009.0
20260506044016 10 356 4.8 11.3 0.00 0.00 0.00 81 1009.0
20260506043054 10 344 3.2 9.7 0.00 0.00 0.00 81 1009.1
20260506043016 10 18 4.8 9.7 0.00 0.00 0.00 81 1009.1
20260506042016 10 360 3.2 8.0 0.00 0.00 0.00 82 1009.0
20260506041604 10 355 3.2 14.5 0.00 0.00 0.00 81 1009.0
20260506041016 10 19 3.2 14.5 0.00 0.00 0.00 82 1009.1
20260506040052 10 5 3.2 12.9 0.00 0.00 0.00 82 1009.1
20260506040016 10 11 3.2 12.9 0.00 0.00 0.00 82 1009.1
20260506035016 10 8 6.4 14.5 0.00 0.00 0.00 83 1009.1
20260506034554 10 17 4.8 12.9 0.00 0.00 0.00 82 1009.1
20260506034016 10 357 6.4 12.9 0.00 0.00 0.00 82 1009.1
20260506033047 10 29 4.8 16.1 0.00 0.00 0.00 82 1009.1
20260506033016 10 4 4.8 14.5 0.00 0.00 0.00 82 1009.2
20260506032015 10 4 6.4 16.1 0.00 0.00 0.00 82 1009.2
20260506031548 10 13 3.2 12.9 0.00 0.00 0.00 82 1009.2
20260506031016 10 19 6.4 16.1 0.00 0.00 0.00 82 1009.3
20260506030057 10 17 3.2 12.9 0.00 0.00 0.00 82 1009.4
20260506030016 10 12 3.2 12.9 0.00 0.00 0.00 82 1009.4
20260506025035 10 3 3.2 12.9 0.00 0.00 0.00 82 1009.4
20260506024603 10 342 4.8 14.5 0.00 0.00 0.00 81 1009.4
20260506024016 10 7 6.4 14.5 0.00 0.00 0.00 82 1009.4
20260506023108 10 26 4.8 17.7 0.00 0.00 0.00 82 1009.4
20260506023016 10 4 4.8 17.7 0.00 0.00 0.00 82 1009.5
20260506022016 10 17 6.4 12.9 0.00 0.00 0.00 82 1009.5
20260506021548 10 23 4.8 11.3 0.00 0.00 0.00 82 1009.5
20260506021016 10 15 4.8 11.3 0.00 0.00 0.00 83 1009.6
20260506020055 9 15 3.2 14.5 0.00 0.00 0.00 82 1009.6
20260506020016 10 19 3.2 14.5 0.00 0.00 0.00 83 1009.6
20260506015016 10 19 1.6 8.0 0.00 0.00 0.00 82 1009.7
20260506014553 9 18 0.0 6.4 0.00 0.00 0.00 82 1009.7
20260506014016 9 19 1.6 11.3 0.00 0.00 0.00 83 1009.7
20260506013056 9 0 1.6 6.4 0.00 0.00 0.00 82 1009.7
20260506013015 9 22 1.6 4.8 0.00 0.00 0.00 83 1009.8
20260506012016 9 22 1.6 6.4 0.00 0.00 0.00 83 1009.8
20260506011550 8 0 0.0 8.0 0.00 0.00 0.00 82 1009.7
20260506011016 9 24 1.6 8.0 0.00 0.00 0.00 83 1009.8
20260506010050 8 24 1.6 6.4 0.00 0.00 0.00 82 1009.7
20260506010016 8 25 3.2 6.4 0.00 0.00 0.00 83 1009.8
20260506005016 8 25 1.6 4.8 0.00 0.00 0.00 82 1009.9
20260506004546 8 0 0.0 4.8 0.00 0.00 0.00 81 1009.9
20260506004016 8 25 0.0 4.8 0.00 0.00 0.00 82 1010.1
20260506003054 8 0 0.0 4.8 0.00 0.00 0.00 81 1010.1
20260506003016 8 25 0.0 4.8 0.00 0.00 0.00 82 1010.2
20260506002016 8 25 0.0 4.8 0.00 0.00 0.00 82 1010.2
20260506001557 8 0 0.0 8.0 0.00 0.00 0.00 81 1010.1
20260506001016 8 25 1.6 8.0 0.00 0.00 0.00 82 1010.3
20260506000100 8 25 0.0 6.4 0.00 0.00 0.00 81 1010.3
20260506000016 8 25 1.6 6.4 0.00 0.00 0.00 82 1010.4
20260505235016 8 24 1.6 8.0 0.00 0.00 0.00 82 1010.5
20260505234552 8 24 1.6 8.0 0.00 0.00 0.00 82 1010.3
20260505234036 8 27 1.6 4.8 0.00 0.00 0.00 82 1010.6
20260505233054 8 0 0.0 8.0 0.00 0.00 0.00 82 1010.6
20260505233016 8 27 1.6 6.4 0.00 0.00 0.00 82 1010.6
20260505232016 8 27 1.6 8.0 0.00 0.00 0.00 82 1010.7
20260505231549 8 27 0.0 6.4 0.00 0.00 0.00 82 1010.6
20260505231016 8 27 1.6 8.0 0.00 0.00 0.00 82 1010.6
20260505230120 8 0 0.0 6.4 0.00 0.00 0.00 81 1010.6
20260505230016 9 28 1.6 6.4 0.00 0.00 0.00 81 1010.6
20260505225036 9 35 3.2 14.5 0.00 0.00 0.00 80 1010.7
20260505224552 8 45 4.8 14.5 0.00 0.00 0.00 80 1010.6
20260505224015 9 25 4.8 8.0 0.00 0.00 0.00 79 1010.7
20260505223053 9 23 3.2 12.9 0.00 0.00 0.00 78 1010.7
20260505223016 10 22 4.8 12.9 0.00 0.00 0.00 78 1010.8
20260505222016 10 12 4.8 12.9 0.00 0.00 0.00 78 1010.8
20260505221557 9 355 1.6 9.7 0.00 0.00 0.00 77 1010.8
20260505221016 10 27 3.2 9.7 0.00 0.00 0.00 78 1011.0
20260505220104 9 32 3.2 9.7 0.00 0.00 0.00 77 1011.0
20260505220016 9 38 3.2 9.7 0.00 0.00 0.00 78 1011.1
20260505215035 9 21 1.6 6.4 0.00 0.00 0.00 79 1011.1
20260505214551 8 21 1.6 8.0 0.00 0.00 0.00 78 1011.1
20260505214016 9 20 3.2 6.4 0.00 0.00 0.00 78 1011.2
20260505213052 8 0 1.6 6.4 0.00 0.00 0.00 78 1011.2
20260505213015 9 18 3.2 6.4 0.00 0.00 0.00 78 1011.3
20260505212015 9 17 1.6 8.0 0.00 0.00 0.00 78 1011.3
20260505211602 8 17 1.6 11.3 0.00 0.00 0.00 78 1011.3
20260505211016 9 17 3.2 11.3 0.00 0.00 0.00 78 1011.3
20260505210056 9 15 1.6 12.9 0.00 0.00 0.00 77 1011.2
20260505210015 9 23 3.2 11.3 0.00 0.00 0.00 77 1011.3
20260505205015 9 21 6.4 12.9 0.00 0.00 0.00 77 1011.3
20260505204555 9 26 3.2 12.9 0.00 0.00 0.00 76 1011.3
20260505204015 10 29 4.8 11.3 0.00 0.00 0.00 76 1011.3
20260505203051 9 0 3.2 14.5 0.00 0.00 0.00 75 1011.2
20260505203016 10 6 4.8 14.5 0.00 0.00 0.00 76 1011.2
20260505202015 10 17 4.8 12.9 0.00 0.00 0.00 76 1011.2
20260505201551 9 5 3.2 12.9 0.00 0.00 0.00 75 1011.2
20260505201035 10 7 4.8 12.9 0.00 0.00 0.00 75 1011.1
20260505200109 10 5 3.2 11.3 0.00 0.00 0.00 75 1011.1
20260505200016 10 5 4.8 11.3 0.00 0.00 0.00 75 1011.1
20260505195018 10 20 4.8 12.9 0.00 0.00 0.00 74 1011.0
20260505194556 10 19 3.2 12.9 0.00 0.00 0.00 73 1011.0
20260505194018 10 13 4.8 11.3 0.00 0.00 0.00 73 1011.0
20260505193104 10 30 4.8 14.5 0.00 0.00 0.00 72 1011.0
20260505193018 10 27 4.8 14.5 0.00 0.00 0.00 72 1011.0
20260505192018 10 21 6.4 16.1 0.00 0.00 0.00 72 1011.0
20260505191602 10 20 4.8 16.1 0.00 0.00 0.00 71 1011.0
20260505191018 10 28 4.8 20.9 0.00 0.00 0.00 72 1011.0
20260505190056 10 5 8.0 19.3 0.00 0.00 0.00 71 1011.0
20260505190016 10 14 9.7 19.3 0.00 0.00 0.00 72 1011.0
20260505185038 11 19 6.4 16.1 0.00 0.00 0.00 72 1010.9
20260505184557 10 16 6.4 20.9 0.00 0.00 0.00 72 1010.8
20260505184018 11 9 8.0 20.9 0.00 0.00 0.00 71 1010.8
20260505183056 11 14 9.7 19.3 0.00 0.00 0.00 70 1010.7
20260505183018 11 17 8.0 19.3 0.00 0.00 0.00 72 1010.8
20260505182018 11 15 9.7 19.3 0.00 0.00 0.00 72 1010.7
20260505181558 11 328 8.0 19.3 0.00 0.00 0.00 72 1010.7
20260505181018 11 5 6.4 16.1 0.00 0.00 0.00 71 1010.8
20260505180054 11 12 8.0 17.7 0.00 0.00 0.00 70 1010.8
20260505180018 11 8 8.0 17.7 0.00 0.00 0.00 70 1010.8
20260505175018 11 16 8.0 17.7 0.00 0.00 0.00 69 1010.8
20260505174602 11 35 4.8 19.3 0.00 0.00 0.00 69 1010.7
20260505174038 11 10 11.3 20.9 0.00 0.00 0.00 70 1010.8
20260505173057 11 13 8.0 19.3 0.00 0.00 0.00 68 1010.7
20260505173018 12 7 8.0 19.3 0.00 0.00 0.00 69 1010.8
20260505172018 12 14 9.7 20.9 0.00 0.00 0.00 69 1010.8
20260505171552 11 349 6.4 24.1 0.00 0.00 0.00 69 1010.8
20260505171018 12 3 9.7 24.1 0.00 0.00 0.00 69 1010.8
20260505170054 12 5 6.4 24.1 0.00 0.00 0.00 69 1010.8
20260505170016 12 12 8.0 17.7 0.00 0.00 0.00 69 1010.8
20260505165017 12 14 9.7 25.7 0.00 0.00 0.00 69 1010.8
20260505164551 12 355 9.7 24.1 0.00 0.00 0.00 68 1010.8
20260505164018 12 20 9.7 20.9 0.00 0.00 0.00 68 1010.9
20260505163051 12 341 8.0 20.9 0.00 0.00 0.00 68 1010.8
20260505163017 12 350 8.0 17.7 0.00 0.00 0.00 69 1010.9
20260505162018 12 16 11.3 29.0 0.00 0.00 0.00 69 1010.8
20260505161548 12 22 11.3 29.0 0.00 0.00 0.00 68 1010.8
20260505161017 12 9 8.0 22.5 0.00 0.00 0.00 67 1010.8
20260505153053 13 328 9.7 24.1 0.00 0.00 0.00 64 1010.9
20260505153018 13 15 9.7 24.1 0.00 0.00 0.00 65 1010.9
20260505152016 13 25 9.7 24.1 0.00 0.00 0.00 64 1010.9
20260505151549 13 17 11.3 24.1 0.00 0.00 0.00 63 1010.8
20260505151017 13 358 9.7 22.5 0.00 0.00 0.00 64 1011.0
20260505130106 13 5 3.2 22.5 0.00 0.00 0.00 64 1011.5
20260505125017 13 37 6.4 19.3 0.00 0.00 0.00 64 1011.5
20260505124553 13 11 8.0 22.5 0.00 0.00 0.00 64 1011.4
20260505124017 13 16 8.0 22.5 0.00 0.00 0.00 65 1011.5
20260505123055 13 36 8.0 20.9 0.00 0.00 0.00 66 1011.5
20260505123017 13 33 9.7 19.3 0.00 0.00 0.00 66 1011.5
20260505122017 13 23 8.0 20.9 0.00 0.00 0.00 66 1011.6
20260505121553 13 12 8.0 20.9 0.00 0.00 0.00 65 1011.6
20260505121016 13 18 8.0 19.3 0.00 0.00 0.00 66 1011.6
20260505120017 13 29 9.7 22.5 0.00 0.00 0.00 66 1011.6
20260505115016 13 18 8.0 22.5 0.00 0.00 0.00 66 1011.7
20260505114552 12 21 4.8 22.5 0.00 0.00 0.00 66 1011.6
20260505114017 13 16 8.0 22.5 0.00 0.00 0.00 66 1011.8
20260505113100 12 14 6.4 17.7 0.00 0.00 0.00 67 1011.8
20260505113017 12 7 8.0 16.1 0.00 0.00 0.00 67 1012.0
20260505112016 12 16 8.0 17.7 0.00 0.00 0.00 66 1012.1
20260505111553 12 30 6.4 20.9 0.00 0.00 0.00 66 1012.0
20260505111037 12 29 8.0 20.9 0.00 0.00 0.00 68 1012.0